Flag for U.S.A. Weather past 2 weeks in Pittsburgh, Pennsylvania, U.S.A.

Now
54 °F

Sunny.


Feels Like: 53 °F
Forecast: 34 / 63 °F
Wind: 6 mph from North

Location: Allegheny County Airport


UV Index: 5 (Moderate)

Visibility: 10 mi


Pressure: 30.14 "Hg

Humidity: 20%

Dew point: 14 °F

Location of PittsburghLocation

Historic Weather in Pittsburgh

°F

Pittsburgh temperature yesterday

Maximum temperature yesterday: 48 °F (at 3:53 PM)
Minimum temperature yesterday: 41 °F (at 3:53 AM)
Average temperature yesterday: 44 °F

Past Weeks' High & Low Weather Summary

 TemperatureHumidityPressure
High83 °F (Apr 13, 3:53 PM)97% (Apr 12, 4:53 AM)30.50 "Hg (Apr 12, 4:53 AM)
Low26 °F (Apr 16, 5:53 AM)14% (Apr 20, 5:53 PM)29.51 "Hg (Apr 15, 4:53 AM)
Average55 °F46%30.07 "Hg
* Reported Apr 9 11:53 AM — Apr 24 11:53 AM, Pittsburgh, Weather by CustomWeather, © 2014

Note: Actual official high and low records may vary slightly from our data, if they occured in-between our weather recording intervals... More about our weather records

Advertising

Historic Weather Conditions — Data for Previous 24 hours

 ConditionsComfort  
Time TempWeatherWind HumidityBarometerVisibility
11:53 AM
Apr 24
52 °FSunny.6 mph22%30.17 "Hg10 mi
10:53 AM49 °FSunny.No wind28%30.18 "Hg10 mi
9:53 AM45 °FSunny.3 mph37%30.20 "Hg10 mi
8:53 AM40 °FSunny.No wind43%30.19 "Hg10 mi
7:53 AM38 °FSunny.3 mph46%30.19 "Hg10 mi
6:53 AM35 °FClear.3 mph46%30.16 "Hg10 mi
5:53 AM34 °FClear.6 mph46%30.14 "Hg10 mi
4:53 AM36 °FClear.5 mph38%30.12 "Hg10 mi
3:53 AM35 °FClear.6 mph38%30.11 "Hg10 mi
2:53 AM36 °FClear.7 mph37%30.10 "Hg10 mi
1:53 AM38 °FClear.7 mph34%30.12 "Hg10 mi
12:53 AM40 °FClear.9 mph33%30.11 "Hg10 mi
11:53 PM
Apr 23
42 °FClear.9 mph38%30.11 "Hg10 mi
10:53 PM43 °FClear.10 mph40%30.10 "Hg10 mi
9:53 PM45 °FClear.6 mph42%30.09 "Hg10 mi
8:53 PM46 °FSunny.6 mph44%30.07 "Hg10 mi
7:53 PM48 °FSunny.9 mph43%30.05 "Hg10 mi
6:53 PM48 °FPassing clouds.10 mph46%30.04 "Hg10 mi
5:53 PM48 °FPartly sunny.6 mph50%30.04 "Hg10 mi
4:53 PM48 °FPartly sunny.14 mph52%30.03 "Hg10 mi
3:53 PM48 °FPartly sunny.13 mph52%30.02 "Hg10 mi
2:53 PM47 °FOvercast.14 mph54%30.01 "Hg10 mi
1:53 PM44 °FOvercast.13 mph60%30.02 "Hg10 mi
Weather by CustomWeather, © 2014

See weather overview